Wind_Speed
24 21 19 18 18 17 17 16 15 15 15 15 16 17 18 19 20 21 22 23 24 25 26 26 27 28 29 30 30 31 32 33 34 34 34 35 35 35 35 35 35 35 35 35 34 34 34 34 33 33 32 30 30 30 30 30 30 30 31 31 32 32 32 33 34 34 33 33 33
20 18 17 16 16 15 15 15 15 15 15 16 17 18 19 20 21 22 23 24 24 25 26 27 28 29 30 31 32 32 33 34 34 34 34 34 34 34 34 34 34 34 34 34 34 34 34 34 33 33 32 31 29 29 29 30 30 30 31 31 32 32 32 33 34 34 34 34 34
18 17 16 15 15 14 14 14 15 16 17 18 19 20 21 22 23 23 24 25 26 27 28 28 29 31 32 32 33 33 33 34 34 34 34 34 34 34 34 34 34 34 34 34 34 34 34 34 34 33 33 32 31 30 29 29 29 30 30 31 31 31 32 32 33 33 33 33 33
17 16 15 14 14 14 14 14 15 17 19 20 21 22 23 23 24 25 26 26 27 28 29 30 31 32 32 33 33 33 33 33 33 34 34 34 34 34 33 33 33 33 33 33 33 33 34 33 33 33 33 32 32 32 31 30 30 30 30 31 31 31 31 32 32 31 32 32 32
16 15 14 14 14 14 15 16 18 19 21 22 22 23 24 24 25 26 27 27 28 29 29 30 31 32 33 33 33 33 33 33 33 33 33 34 34 33 33 33 33 33 33 33 33 33 33 33 33 33 33 33 33 32 32 32 31 30 31 31 31 31 31 31 31 31 31 32 32
15 15 14 14 15 16 17 19 20 21 22 23 23 23 24 25 26 26 27 28 28 29 30 30 31 32 32 32 32 33 33 33 33 33 33 33 33 33 33 33 33 33 33 33 33 33 33 33 33 33 33 33 33 33 33 33 32 31 31 31 31 31 31 32 32 32 32 32 33
15 15 15 15 17 18 20 21 22 22 22 23 23 24 25 25 26 26 27 28 29 29 30 31 31 32 32 32 32 32 32 32 32 32 32 33 33 32 32 32 32 32 32 32 32 32 32 31 31 31 31 31 31 32 32 32 31 31 31 31 31 31 31 32 32 32 33 33 34
15 15 16 17 19 20 21 21 21 21 22 23 24 24 25 25 26 27 27 28 29 30 30 31 31 31 32 32 32 32 32 32 32 32 32 32 32 32 32 32 32 32 32 32 32 31 31 30 29 29 29 30 30 30 30 30 30 31 31 31 31 31 31 32 33 33 33 34 35
14 15 17 19 20 20 20 20 20 21 22 23 24 25 25 26 27 27 28 29 30 30 30 31 31 31 31 31 32 32 32 32 32 32 32 32 32 32 32 32 32 32 32 32 31 31 30 29 28 28 29 29 29 30 30 31 31 32 32 32 32 32 32 32 33 34 34 35 36
15 16 18 19 19 19 19 20 21 22 23 24 24 25 26 27 28 28 29 30 30 31 31 31 31 31 31 32 32 32 32 32 32 32 32 32 32 33 33 33 33 33 32 31 31 30 29 28 27 28 29 30 31 31 32 32 33 34 34 32 32 32 32 33 33 34 35 36 36
16 17 18 18 18 18 20 21 22 23 23 24 25 26 26 27 28 29 29 30 30 31 31 31 31 31 31 32 32 32 32 32 32 32 32 32 32 32 32 32 32 32 32 31 31 30 30 30 30 30 31 31 31 32 32 32 32 32 33 33 33 33 34 34 34 35 36 37 37
17 17 17 17 19 20 21 21 22 22 23 24 25 26 26 27 27 28 29 29 29 29 29 29 30 30 31 31 31 31 31 31 31 31 32 32 32 32 32 32 32 32 32 31 31 31 30 30 31 31 32 32 32 32 31 32 31 32 32 33 33 34 34 35 35 35 35 36 37
16 16 17 19 20 20 21 21 21 22 22 23 24 24 25 26 26 27 27 27 28 28 28 29 29 29 30 30 31 31 31 31 31 32 32 32 33 33 33 33 32 32 32 32 31 31 31 31 31 32 32 32 32 32 32 32 32 32 33 33 33 34 35 35 35 35 36 36 37
16 17 19 19 20 20 20 20 20 20 21 21 22 23 24 25 26 26 27 27 27 28 28 29 30 30 30 31 31 31 32 32 32 33 33 33 33 33 33 33 33 32 32 32 32 31 31 31 31 31 31 32 33 33 33 33 33 34 34 34 35 35 36 36 36 36 36 37 38
17 18 18 19 19 19 19 19 19 19 19 20 21 23 24 25 26 26 27 28 28 29 30 30 31 31 31 31 32 32 32 33 33 33 33 33 33 33 33 32 32 32 32 32 32 31 32 32 32 32 32 33 34 35 35 35 35 35 35 36 36 37 37 37 37 37 36 37 37
17 18 18 18 18 18 18 18 18 18 19 21 22 24 25 25 26 27 28 29 30 31 31 32 32 32 32 32 32 32 32 32 32 32 33 33 32 32 32 32 32 31 31 31 31 32 32 33 33 33 33 33 34 35 35 35 36 36 36 37 38 38 39 39 38 37 37 37 38
17 17 17 17 16 16 17 17 18 20 21 23 24 25 26 26 27 28 29 30 31 31 32 33 33 33 33 33 33 33 32 32 32 32 32 32 32 32 32 32 32 32 32 32 32 33 33 34 34 34 33 34 35 35 36 36 36 37 37 38 38 38 39 39 38 38 38 38 38
16 15 15 15 15 16 17 18 20 22 23 24 25 26 26 27 27 28 29 30 31 32 33 33 33 34 34 34 33 33 33 33 33 33 33 33 33 33 33 33 33 33 33 33 33 34 34 34 35 34 34 34 35 36 37 37 38 38 39 39 39 39 39 39 39 39 38 38 39
14 13 13 13 14 16 18 20 22 23 24 26 26 27 27 28 29 30 30 31 31 32 33 34 34 34 34 34 34 34 34 33 34 34 34 34 34 34 34 34 34 34 34 34 34 34 34 35 35 35 35 35 36 37 38 39 39 39 39 39 39 39 39 39 39 39 39 39 39
13 12 12 14 16 18 20 21 23 24 25 27 28 28 29 30 30 31 31 32 32 33 33 34 34 35 35 35 35 35 34 34 34 34 34 35 34 34 34 34 34 34 34 34 34 34 34 35 35 35 35 36 37 38 38 39 38 38 38 38 38 38 38 38 38 38 38 38 39
12 13 14 16 18 19 21 22 24 25 27 28 29 30 30 31 32 32 32 33 33 33 34 34 35 35 35 36 36 36 35 35 34 35 35 36 35 35 35 34 34 34 34 34 34 34 34 34 35 36 37 37 37 38 38 37 37 37 37 37 37 37 36 37 36 36 37 37 38
13 14 16 18 19 21 22 23 25 26 28 29 30 31 31 32 33 33 33 33 34 34 34 35 35 36 36 36 36 37 37 36 36 36 36 36 36 36 35 34 33 34 34 34 34 34 35 35 36 37 37 37 37 36 36 35 35 35 35 35 35 35 35 35 35 35 36 37 37
15 17 18 19 20 22 23 24 26 27 28 29 30 30 31 32 33 33 34 34 35 35 36 36 36 37 37 37 37 38 39 39 38 38 37 36 36 35 34 33 32 32 33 33 33 34 35 36 36 36 35 34 34 34 34 33 33 33 33 34 34 34 33 33 33 34 34 35 36
17 19 20 20 21 22 24 25 27 28 28 28 29 29 30 31 32 33 34 35 36 36 37 37 38 38 38 38 39 39 39 39 39 38 37 37 35 34 33 32 31 32 32 33 33 34 35 36 36 36 34 33 32 32 32 32 31 31 32 32 32 32 32 33 33 32 33 33 34
19 20 21 21 22 24 25 26 27 28 28 28 28 28 29 30 32 33 35 36 37 38 38 38 39 39 39 39 39 39 39 39 38 37 37 37 36 34 33 32 31 32 33 34 36 36 37 37 37 36 34 32 31 31 31 31 31 31 32 32 32 33 33 33 33 33 33 33 33
19 20 21 22 23 25 26 27 27 27 27 27 28 28 29 30 32 34 36 37 38 38 39 39 39 39 39 40 39 39 38 38 36 36 35 35 35 35 33 32 32 32 34 35 37 38 38 37 36 35 33 32 31 31 31 31 31 31 32 32 33 33 34 34 34 34 34 34 34
20 21 22 23 24 25 26 27 27 28 28 28 29 30 31 32 33 35 36 37 38 39 39 39 39 39 39 39 38 37 37 37 36 35 35 35 35 34 33 32 32 33 35 37 38 38 37 36 35 33 31 30 31 31 32 32 32 32 32 32 33 33 34 35 34 34 34 34 34
21 22 23 24 25 26 27 28 28 28 29 29 30 31 33 34 35 35 36 37 38 39 39 38 38 37 37 36 36 36 36 36 35 35 34 34 34 33 32 32 33 34 36 37 38 38 36 35 33 31 31 30 31 32 33 33 33 33 32 32 33 33 33 34 34 34 34 34 34
22 22 23 25 26 27 28 28 29 29 30 31 32 33 34 35 35 36 36 37 38 37 37 36 36 35 35 35 35 35 35 35 35 34 34 34 34 33 33 33 34 36 37 38 37 36 34 33 32 31 31 31 32 33 34 34 34 33 33 32 32 32 32 32 33 33 33 33 33
22 23 24 25 27 28 28 29 30 31 31 32 32 33 34 35 36 36 36 37 36 36 36 36 35 35 35 35 35 35 35 34 34 33 33 33 34 34 34 35 36 37 37 37 35 34 32 31 31 31 31 31 32 33 34 35 34 34 33 33 32 32 32 33 33 33 33 33 33
23 24 25 26 27 28 29 30 31 31 32 32 33 34 35 35 36 36 36 36 36 36 36 36 36 36 36 35 34 33 33 33 33 32 33 33 35 35 36 37 37 37 36 35 33 32 31 31 31 31 31 31 32 33 34 34 33 34 34 34 34 34 33 33 34 34 33 33 33
23 24 25 27 28 29 30 31 31 32 32 33 34 34 35 35 36 36 36 36 36 36 36 36 35 35 36 36 34 33 33 33 34 34 34 35 36 37 38 37 37 36 35 33 32 32 31 31 31 31 30 30 31 33 34 35 35 35 35 36 35 35 35 35 35 35 35 34 34
24 25 26 28 29 30 31 31 31 32 33 34 34 35 35 35 36 37 37 36 36 35 35 35 35 36 36 36 35 35 34 34 35 36 36 36 37 37 36 36 35 34 33 32 32 31 31 31 30 30 30 30 31 33 34 35 35 36 36 36 36 36 35 35 36 36 35 35 35
25 26 27 28 30 31 32 32 32 33 34 35 35 36 36 36 36 36 36 36 35 35 35 36 36 36 36 36 35 34 35 36 37 37 36 36 36 35 35 34 34 33 32 32 31 31 30 30 30 29 29 30 31 32 33 34 35 35 35 36 36 35 35 35 35 35 35 35 36
26 27 28 30 31 32 32 32 33 33 34 36 37 37 37 36 36 35 35 35 35 36 36 37 37 36 36 35 34 34 35 36 37 37 37 36 35 34 34 34 33 32 32 31 31 30 30 29 29 28 28 28 30 31 32 33 33 34 34 35 34 34 34 34 35 35 35 35 36
26 27 29 31 32 32 32 32 33 34 35 36 37 38 37 36 35 35 35 35 36 37 37 38 37 36 35 34 35 35 36 36 37 37 36 34 34 33 34 34 33 32 31 31 30 29 28 27 26 26 26 27 29 30 31 32 33 33 33 33 34 34 34 34 34 34 35 35 35
25 27 29 31 31 31 31 33 34 35 36 37 37 36 36 35 35 35 36 36 36 37 38 38 37 35 34 34 35 36 37 36 36 35 34 33 33 33 34 34 34 33 31 30 29 27 26 25 24 24 24 26 28 30 31 31 32 32 33 33 33 33 33 33 33 34 34 34 35
25 27 28 30 30 31 32 34 35 36 36 36 36 35 35 35 35 36 37 37 37 37 38 38 36 35 35 36 36 37 37 36 34 33 33 33 33 33 33 34 34 33 31 29 28 26 24 23 23 23 23 26 28 29 31 32 32 32 32 32 32 32 32 32 32 33 34 34 34
26 27 28 29 31 32 33 35 35 36 36 36 36 35 35 36 36 37 38 38 37 37 36 36 35 35 35 36 36 36 36 35 33 32 32 32 32 33 33 34 34 33 31 29 27 25 23 22 22 22 23 24 27 29 30 32 32 33 32 32 32 32 32 32 32 32 33 33 34
27 28 29 30 32 33 34 35 35 35 35 35 35 35 36 36 37 38 39 38 37 36 35 35 35 36 36 35 35 35 35 34 33 32 32 32 32 32 32 33 33 32 30 28 25 24 22 22 22 22 22 24 26 28 29 31 32 33 32 32 32 32 32 32 32 32 32 33 33
28 29 30 31 32 33 34 34 34 34 34 35 35 35 36 37 38 38 38 37 36 35 34 34 35 35 35 34 34 33 33 33 32 32 32 32 32 32 31 31 31 30 29 27 25 23 22 22 22 22 23 24 25 27 29 31 32 33 32 32 32 32 32 32 32 32 32 32 33
Wind_Direction
256 255 253 251 251 252 254 256 259 264 270 278 285 291 295 297 298 298 298 298 297 297 296 295 295 294 294 293 293 293 293 293 292 292 292 292 291 291 291 291 291 291 291 290 290 289 288 287 285 282 279 276 273 271 269 268 267 266 265 264 264 264 263 262 261 260 259 259 259
252 251 249 249 250 253 257 262 268 274 281 288 293 297 299 300 300 300 299 299 298 298 298 297 297 296 296 296 295 295 295 295 295 295 294 294 294 294 294 294 293 293 292 292 291 290 288 287 284 282 279 275 272 269 268 266 265 264 263 262 262 262 262 261 259 259 258 258 258
248 247 248 249 252 257 263 271 278 285 291 296 298 301 302 302 302 301 301 300 299 299 299 298 298 297 296 296 296 296 296 296 296 296 296 296 295 295 295 294 294 293 292 291 290 289 287 286 284 281 278 275 273 269 267 265 264 262 262 261 261 261 260 260 259 258 257 257 256
246 246 248 252 257 264 272 280 287 292 295 297 299 301 302 302 302 301 301 300 299 299 298 298 297 297 296 297 297 297 297 297 297 297 296 296 295 295 294 293 292 291 290 289 288 287 285 284 282 280 277 275 273 270 268 266 264 262 261 260 260 259 259 259 258 257 256 256 255
245 247 251 257 264 273 281 286 290 292 293 295 298 300 301 301 301 300 299 299 298 298 297 297 296 296 297 297 298 298 298 297 297 296 296 295 294 293 293 292 291 290 289 288 287 286 284 283 281 279 277 275 273 271 269 268 265 263 261 260 259 259 258 258 257 256 255 255 255
246 250 256 264 272 280 285 287 288 289 291 294 297 299 299 299 298 297 297 296 296 296 296 296 296 297 298 298 298 298 297 297 296 295 294 294 293 293 292 292 291 290 290 289 288 287 286 285 282 280 278 276 274 273 271 270 267 264 262 261 259 258 258 257 256 256 255 255 254
250 257 265 272 278 282 284 285 286 288 291 294 297 297 296 295 294 294 294 294 295 296 296 297 297 298 298 298 298 297 296 296 295 294 293 293 293 293 293 293 293 293 292 291 291 290 288 286 284 281 279 277 275 274 273 271 268 266 263 261 260 259 258 257 256 255 254 254 253
257 265 272 277 280 281 282 284 288 292 295 297 297 295 293 292 292 292 293 295 296 297 297 298 298 298 298 297 297 296 295 295 294 294 294 294 295 295 295 295 295 294 294 293 292 290 288 286 282 279 277 276 274 274 273 272 269 266 264 263 262 261 259 258 257 255 254 253 252
264 271 276 278 279 281 284 289 294 297 298 297 295 293 291 291 292 294 296 297 298 299 299 299 299 298 298 297 297 296 296 296 296 296 296 297 297 297 297 297 297 296 295 293 291 289 287 283 278 276 274 273 272 272 272 271 270 268 267 265 264 262 261 259 257 256 255 254 253
271 275 277 278 281 285 291 295 297 297 296 294 292 291 292 293 296 298 299 300 301 301 301 301 301 300 299 299 298 298 298 298 298 298 299 299 299 299 299 298 297 296 295 293 291 288 284 279 274 273 272 272 272 272 272 272 271 270 269 267 265 264 262 261 259 258 257 256 254
275 277 280 284 289 294 297 298 297 295 292 290 290 292 295 298 300 302 302 303 303 303 303 303 302 301 301 301 300 300 300 299 299 299 299 299 298 298 298 297 296 295 293 291 289 286 283 279 276 275 274 273 273 272 272 271 270 270 269 268 268 267 265 263 261 259 258 257 255
277 281 287 293 297 298 298 295 292 290 289 290 294 297 300 302 303 303 303 304 304 304 303 303 302 301 301 300 300 300 299 298 298 297 297 297 297 297 296 295 294 293 292 290 288 286 283 280 279 278 278 276 275 273 271 271 270 269 268 268 268 268 266 265 262 260 259 257 256
283 290 295 298 297 296 292 289 287 288 291 295 299 301 303 303 303 303 303 303 303 303 302 302 301 300 300 299 299 298 297 297 296 296 296 296 296 296 296 295 294 293 292 291 289 286 284 282 280 279 279 278 276 274 272 271 270 270 269 268 267 267 266 265 264 262 260 259 257
292 296 296 295 292 288 285 285 288 292 296 300 302 302 302 303 303 303 303 303 303 302 302 302 301 300 299 299 298 298 297 297 297 297 297 297 297 297 297 296 295 294 292 291 289 287 284 283 281 279 278 277 277 276 275 272 271 270 269 268 267 266 265 264 263 263 261 259 258
295 294 291 287 284 282 284 289 293 297 300 301 302 302 303 303 304 304 304 304 305 304 304 303 302 301 300 300 299 299 299 299 298 298 298 298 298 297 296 295 294 293 291 290 288 286 284 282 281 280 278 278 278 278 277 274 273 271 269 267 266 266 265 263 262 261 260 259 258
291 287 282 279 280 284 290 295 298 299 301 302 303 304 305 306 306 306 307 307 307 306 305 304 303 303 302 301 301 301 300 300 299 299 298 297 297 296 295 293 292 291 289 287 286 285 284 283 282 280 279 278 278 278 277 275 273 271 269 268 266 265 264 263 261 260 259 258 257
283 278 276 279 284 290 294 297 298 300 302 304 306 307 308 309 309 309 308 308 308 307 306 305 305 305 304 304 303 302 301 300 299 298 297 296 295 295 293 292 290 289 288 286 285 284 284 284 283 282 280 279 278 277 276 275 273 271 269 268 266 265 264 262 261 259 257 256 255
275 274 277 283 288 292 295 297 299 302 304 307 309 311 311 311 311 310 310 309 308 308 307 307 307 307 307 306 305 304 303 301 300 299 298 297 296 295 293 292 291 290 289 288 287 286 286 286 285 284 281 279 278 277 276 275 273 271 270 268 267 266 264 262 261 259 257 255 254
271 274 278 284 288 292 295 298 301 304 307 310 312 313 314 313 313 312 311 311 310 309 309 309 309 309 308 308 307 306 304 302 301 300 299 298 297 295 294 293 292 291 290 289 289 288 288 287 286 284 282 280 279 278 276 275 274 273 271 270 268 267 265 263 261 259 257 255 254
270 273 278 284 289 293 297 301 304 308 311 313 315 316 316 316 315 315 314 313 312 311 311 311 311 311 310 309 308 307 305 303 301 300 299 298 297 295 294 294 293 292 292 291 290 289 288 287 285 284 282 280 279 278 277 275 274 273 272 270 269 267 266 264 262 260 258 256 255
271 276 281 287 291 296 300 304 308 312 314 316 317 318 318 318 318 317 316 315 314 313 312 312 312 312 311 310 309 307 306 303 301 300 299 298 297 297 296 295 294 294 293 292 291 289 288 286 285 284 282 281 279 278 276 275 273 272 271 269 268 267 266 265 263 262 260 258 256
274 280 285 290 295 299 304 308 312 315 317 318 319 319 319 319 318 317 316 315 314 313 313 313 312 312 311 310 309 308 306 304 302 301 300 300 299 299 298 297 295 294 293 292 291 289 288 287 286 285 283 282 280 278 277 275 273 272 271 270 269 268 267 266 265 264 262 260 259
279 284 288 293 298 303 308 312 315 317 318 319 320 320 319 318 317 316 315 315 314 314 313 313 313 313 312 310 309 308 307 306 305 304 303 302 301 300 299 297 295 293 292 291 289 288 287 286 286 285 283 281 279 278 276 274 274 273 272 271 270 270 269 268 267 266 264 263 261
283 287 292 296 301 306 310 314 316 318 319 319 319 318 317 316 315 314 314 314 314 314 314 314 314 313 312 311 310 309 308 307 306 305 305 304 302 299 297 295 292 290 289 289 288 286 285 285 285 284 283 281 279 277 275 274 273 272 271 271 271 270 269 268 267 266 265 264 263
286 290 295 300 305 309 313 316 318 319 319 318 317 316 314 313 312 313 313 314 315 315 315 315 315 314 313 312 310 310 309 308 306 305 304 303 302 299 297 294 291 290 289 289 289 288 287 286 286 286 285 283 281 278 276 274 273 271 271 270 270 269 269 268 266 265 264 263 262
289 294 298 303 308 312 315 317 318 319 318 317 316 314 313 312 312 312 313 314 315 316 316 316 315 314 313 312 311 310 309 307 305 303 302 301 300 299 297 294 292 290 290 290 290 290 289 289 289 288 287 286 283 281 279 278 276 274 272 271 270 270 269 268 267 266 264 263 262
292 297 302 307 311 315 317 318 318 318 317 316 315 314 313 313 313 313 314 314 315 316 317 317 316 315 313 312 310 308 307 305 303 302 300 299 299 298 296 294 291 290 290 290 290 290 290 290 290 290 289 287 285 283 281 280 278 277 275 273 272 270 269 268 267 267 265 264 263
296 300 306 310 314 316 318 318 318 317 316 315 315 314 314 314 314 314 314 315 316 316 317 316 315 313 311 309 307 305 304 303 302 300 300 299 298 296 294 292 290 289 289 289 290 290 291 291 292 291 290 288 286 284 282 280 280 278 277 275 273 271 269 268 267 267 266 265 263
300 305 309 314 316 317 318 318 317 316 316 316 315 315 314 314 314 314 314 315 316 316 315 314 312 310 308 306 305 304 303 302 301 300 299 298 297 295 293 291 290 289 290 290 291 292 293 293 293 292 291 289 287 285 283 281 280 279 277 274 273 271 269 268 267 266 265 265 264
304 309 313 316 317 317 317 317 316 316 316 316 315 315 314 314 314 315 315 315 315 314 313 312 310 308 307 305 305 304 303 302 301 299 298 296 295 294 293 292 291 292 292 294 295 296 296 295 295 294 293 291 289 286 284 282 280 279 277 274 272 270 269 268 267 266 265 264 264
307 311 314 316 317 316 316 316 316 316 316 316 315 315 314 315 314 315 315 315 314 314 313 313 310 309 307 306 304 302 301 300 299 298 296 295 294 294 294 294 294 295 297 298 299 300 299 298 297 296 295 293 291 288 285 283 281 279 277 275 273 271 269 268 267 266 264 264 263
309 313 315 316 316 316 316 316 316 316 316 316 315 315 315 315 315 315 315 315 315 314 313 312 310 308 308 307 305 303 301 300 299 298 298 297 296 296 296 297 298 299 301 302 303 302 302 301 300 298 297 295 293 290 287 285 283 280 278 276 274 272 270 269 267 266 265 263 262
310 313 315 315 315 316 316 316 316 316 316 316 316 316 315 315 315 316 316 316 315 314 312 311 309 308 307 307 306 304 303 302 301 301 300 299 298 298 298 299 300 301 303 304 305 305 304 303 302 300 299 297 295 292 289 287 285 282 280 278 276 274 272 270 269 267 266 264 262
312 314 315 315 315 316 317 317 317 317 317 317 316 316 316 316 316 316 316 316 315 313 312 311 310 309 308 307 306 304 304 303 303 302 301 301 300 300 300 300 301 303 305 306 306 306 305 304 302 301 299 298 296 294 291 289 286 284 282 280 279 277 275 273 271 269 268 266 264
313 314 315 315 316 317 317 317 317 317 317 317 317 317 317 317 317 316 316 315 314 313 312 312 311 310 309 308 306 304 304 303 303 303 303 302 302 301 301 302 303 305 307 307 307 306 305 304 302 301 300 300 298 296 294 291 289 286 284 283 280 279 278 276 274 273 271 269 267
314 314 315 316 317 317 317 317 317 317 317 317 317 318 318 318 317 316 316 315 314 313 312 312 311 310 308 307 306 305 304 303 303 304 304 304 304 304 304 305 306 307 308 308 307 306 305 304 303 303 304 303 301 299 297 294 291 288 286 284 282 281 280 279 277 276 274 272 270
313 314 315 316 316 316 316 316 317 317 317 317 318 318 317 317 316 316 316 315 314 313 313 313 312 310 308 306 305 305 305 305 305 305 306 306 306 306 306 306 307 307 308 308 308 307 307 306 306 307 308 307 305 303 300 296 293 290 288 285 284 282 281 280 279 277 275 273 272
312 313 314 314 315 315 315 316 316 317 317 317 317 317 317 316 316 316 316 316 315 314 313 313 311 310 308 307 306 307 307 307 307 307 307 307 307 307 306 306 306 307 308 309 309 309 309 310 310 311 312 311 308 306 303 299 296 293 290 288 285 284 284 282 280 278 276 275 274
312 312 313 313 313 314 315 316 316 317 317 317 317 317 317 317 317 317 317 317 316 314 313 312 310 309 308 308 307 307 308 309 309 309 308 307 308 307 306 306 306 307 309 311 312 312 313 314 315 316 316 315 312 309 306 303 299 296 293 290 288 287 286 284 281 279 278 277 277
311 312 312 313 313 314 315 315 316 316 317 317 317 318 318 317 317 318 318 318 316 315 313 311 310 309 309 308 308 308 309 310 310 310 309 308 308 308 307 307 307 309 311 313 315 316 318 319 320 321 321 320 317 313 310 306 302 299 295 293 290 288 287 285 283 281 279 279 279
311 312 312 313 313 314 315 315 316 316 317 317 318 318 318 318 318 319 318 317 316 314 312 310 310 309 309 309 309 309 310 310 311 310 310 309 309 309 309 309 309 311 313 316 319 321 323 325 326 327 326 324 321 317 313 308 304 300 297 294 292 289 287 286 284 282 281 280 279
Height
1482 1483 1483 1483 1483 1483 1483 1483 1483 1483 1483 1483 1482 1482 1481 1481 1481 1480 1480 1479 1479 1478 1478 1477 1477 1476 1476 1475 1475 1474 1473 1473 1473 1472 1471 1471 1470 1469 1468 1468 1467 1466 1466 1465 1464 1464 1463 1463 1462 1461 1460 1460 1459 1458 1458 1457 1457 1457 1456 1456 1455 1455 1455 1454 1453 1453 1453 1452 1452
1481 1481 1481 1481 1482 1482 1482 1482 1482 1482 1481 1481 1480 1480 1479 1479 1479 1478 1478 1478 1477 1477 1476 1475 1475 1474 1473 1473 1473 1472 1471 1470 1470 1469 1468 1468 1467 1466 1465 1465 1464 1463 1463 1462 1461 1461 1460 1460 1459 1458 1457 1456 1456 1455 1454 1454 1454 1453 1453 1452 1452 1452 1451 1450 1449 1449 1449 1448 1448
1479 1479 1479 1480 1480 1480 1480 1480 1480 1480 1479 1479 1478 1478 1478 1478 1477 1477 1476 1476 1475 1475 1474 1473 1472 1472 1471 1471 1470 1469 1469 1468 1467 1466 1465 1465 1464 1463 1463 1462 1461 1461 1460 1459 1458 1458 1457 1456 1456 1455 1454 1453 1452 1452 1451 1451 1451 1450 1449 1449 1448 1448 1447 1446 1446 1445 1445 1445 1444
1477 1478 1478 1478 1478 1478 1478 1478 1478 1478 1478 1477 1477 1477 1476 1476 1475 1475 1474 1474 1473 1473 1472 1471 1470 1469 1469 1468 1468 1467 1466 1465 1464 1464 1463 1462 1462 1461 1460 1460 1459 1458 1457 1456 1455 1454 1454 1453 1452 1451 1450 1449 1449 1448 1448 1448 1448 1447 1446 1445 1445 1444 1443 1443 1442 1442 1442 1441 1441
1476 1476 1476 1476 1477 1477 1477 1476 1476 1476 1476 1476 1475 1475 1475 1474 1474 1473 1473 1472 1472 1471 1470 1469 1468 1467 1466 1466 1465 1464 1464 1463 1462 1461 1460 1460 1459 1458 1458 1457 1456 1455 1454 1453 1452 1451 1450 1450 1449 1448 1447 1446 1445 1444 1444 1444 1443 1443 1443 1442 1442 1441 1440 1439 1439 1438 1438 1437 1437
1474 1474 1474 1475 1475 1474 1474 1474 1474 1474 1474 1474 1474 1473 1473 1473 1472 1472 1471 1470 1469 1469 1468 1467 1466 1465 1464 1463 1463 1462 1461 1460 1460 1459 1458 1457 1456 1455 1454 1453 1453 1451 1450 1449 1448 1448 1447 1446 1445 1444 1443 1442 1441 1440 1440 1440 1440 1439 1439 1438 1438 1437 1437 1436 1435 1435 1434 1434 1433
1473 1473 1473 1473 1473 1473 1473 1473 1473 1473 1473 1473 1472 1472 1472 1471 1471 1470 1469 1468 1468 1467 1466 1464 1463 1463 1462 1461 1460 1459 1458 1458 1457 1456 1455 1454 1453 1452 1451 1450 1448 1448 1447 1446 1445 1444 1443 1442 1441 1440 1439 1438 1438 1437 1436 1436 1436 1435 1435 1434 1434 1433 1433 1432 1432 1431 1431 1430 1430
1471 1471 1471 1471 1471 1471 1471 1471 1471 1471 1471 1471 1470 1470 1470 1469 1469 1468 1467 1466 1465 1464 1463 1462 1461 1460 1459 1458 1457 1456 1456 1455 1454 1453 1452 1451 1449 1448 1447 1446 1445 1443 1443 1442 1441 1440 1439 1439 1438 1437 1436 1435 1434 1433 1433 1433 1432 1432 1431 1431 1430 1430 1429 1429 1428 1428 1427 1427 1426
1470 1469 1469 1469 1470 1470 1470 1469 1469 1469 1469 1469 1468 1468 1468 1467 1466 1466 1465 1464 1463 1462 1461 1460 1458 1458 1457 1456 1454 1453 1452 1451 1450 1449 1448 1447 1446 1444 1443 1442 1441 1440 1439 1438 1438 1437 1436 1435 1434 1433 1433 1432 1431 1430 1429 1429 1428 1428 1427 1427 1426 1426 1425 1425 1425 1424 1424 1423 1423
1468 1468 1468 1468 1468 1468 1468 1468 1468 1467 1467 1467 1467 1466 1465 1465 1464 1463 1462 1461 1460 1459 1458 1457 1456 1455 1453 1453 1451 1450 1449 1448 1447 1445 1444 1443 1442 1441 1439 1438 1437 1436 1435 1434 1434 1433 1433 1432 1431 1430 1429 1428 1427 1426 1426 1425 1424 1424 1423 1423 1422 1422 1421 1421 1421 1421 1420 1420 1419
1467 1467 1467 1467 1466 1466 1466 1466 1466 1465 1465 1465 1464 1464 1463 1462 1461 1460 1459 1458 1457 1456 1455 1454 1453 1452 1450 1449 1448 1447 1446 1444 1443 1442 1441 1439 1438 1437 1436 1435 1434 1433 1432 1431 1430 1430 1429 1428 1427 1426 1425 1425 1424 1423 1422 1421 1421 1420 1419 1418 1418 1418 1417 1417 1417 1417 1417 1416 1415
1465 1465 1465 1465 1465 1464 1464 1464 1464 1463 1463 1463 1462 1461 1460 1460 1459 1458 1457 1456 1455 1453 1452 1451 1450 1449 1448 1446 1445 1444 1443 1441 1440 1439 1438 1436 1435 1434 1433 1431 1430 1429 1428 1427 1427 1426 1425 1424 1423 1422 1421 1421 1420 1419 1418 1418 1417 1417 1416 1415 1415 1414 1413 1413 1413 1413 1413 1412 1412
1464 1463 1463 1463 1463 1463 1463 1462 1462 1461 1461 1460 1459 1459 1458 1457 1457 1456 1455 1453 1452 1451 1450 1449 1448 1446 1445 1443 1442 1441 1440 1438 1437 1436 1434 1433 1431 1430 1429 1428 1427 1425 1424 1423 1423 1422 1421 1420 1419 1418 1417 1417 1416 1415 1415 1414 1414 1413 1412 1412 1411 1410 1409 1409 1409 1408 1408 1408 1408
1462 1462 1462 1462 1461 1461 1461 1460 1460 1459 1459 1458 1458 1457 1456 1455 1454 1453 1452 1451 1450 1449 1448 1446 1445 1444 1443 1441 1440 1438 1437 1435 1434 1432 1431 1429 1428 1427 1425 1424 1423 1422 1421 1419 1419 1418 1417 1416 1415 1414 1414 1413 1412 1411 1411 1410 1410 1409 1408 1408 1407 1406 1405 1405 1405 1405 1405 1404 1404
1461 1460 1460 1460 1459 1459 1458 1458 1458 1457 1457 1456 1456 1455 1454 1453 1452 1451 1450 1448 1447 1446 1445 1444 1442 1441 1440 1438 1437 1435 1433 1432 1430 1429 1427 1426 1424 1423 1422 1420 1419 1418 1417 1416 1415 1414 1413 1413 1412 1411 1410 1409 1408 1407 1407 1406 1405 1404 1403 1403 1402 1402 1401 1401 1400 1401 1400 1400 1400
1459 1459 1458 1458 1458 1457 1457 1456 1456 1455 1455 1454 1453 1453 1452 1451 1450 1448 1447 1446 1444 1443 1442 1441 1440 1438 1437 1435 1434 1432 1430 1428 1427 1425 1424 1422 1421 1420 1418 1417 1416 1415 1414 1413 1412 1411 1410 1409 1408 1407 1406 1405 1404 1403 1403 1402 1401 1400 1399 1398 1397 1397 1396 1396 1396 1396 1396 1396 1396
1457 1457 1456 1456 1456 1455 1455 1454 1454 1453 1453 1452 1452 1451 1450 1448 1447 1446 1445 1443 1442 1441 1439 1438 1437 1435 1433 1432 1430 1429 1427 1425 1424 1422 1421 1419 1418 1417 1416 1414 1413 1412 1411 1410 1409 1408 1407 1406 1405 1403 1403 1402 1400 1399 1398 1397 1396 1395 1394 1393 1393 1392 1391 1391 1391 1391 1391 1391 1391
1455 1455 1455 1454 1454 1453 1453 1453 1452 1452 1451 1450 1449 1448 1447 1446 1445 1443 1442 1441 1439 1438 1436 1435 1433 1432 1430 1428 1427 1426 1424 1422 1421 1419 1418 1416 1415 1414 1413 1411 1410 1409 1408 1407 1405 1404 1403 1402 1401 1400 1399 1398 1396 1395 1394 1393 1392 1391 1389 1389 1388 1387 1387 1386 1386 1386 1386 1386 1386
1454 1453 1453 1453 1453 1452 1451 1451 1450 1449 1448 1448 1447 1446 1445 1443 1442 1441 1439 1438 1437 1435 1433 1432 1430 1428 1427 1425 1424 1422 1421 1419 1417 1416 1414 1413 1412 1410 1409 1408 1407 1406 1404 1403 1402 1401 1399 1398 1397 1396 1395 1394 1392 1391 1389 1388 1387 1386 1384 1384 1383 1382 1382 1382 1381 1381 1381 1381 1381
1453 1452 1452 1451 1451 1450 1449 1449 1448 1447 1446 1445 1444 1443 1442 1441 1439 1438 1437 1435 1434 1432 1430 1428 1427 1425 1424 1422 1421 1419 1418 1416 1414 1413 1411 1410 1409 1407 1406 1405 1403 1402 1401 1400 1398 1397 1396 1395 1394 1393 1391 1390 1388 1386 1385 1383 1382 1381 1380 1379 1378 1378 1378 1377 1377 1377 1377 1377 1377
1451 1451 1450 1449 1449 1448 1448 1447 1446 1445 1444 1443 1442 1440 1439 1438 1437 1435 1434 1433 1431 1429 1428 1426 1424 1422 1421 1419 1418 1416 1415 1413 1412 1410 1408 1407 1405 1404 1403 1402 1400 1399 1398 1396 1395 1394 1393 1391 1390 1388 1387 1385 1384 1382 1381 1380 1378 1377 1376 1376 1375 1374 1373 1373 1373 1373 1373 1372 1372
1449 1449 1448 1447 1447 1446 1445 1444 1443 1443 1441 1440 1439 1438 1436 1435 1434 1432 1431 1429 1428 1426 1425 1423 1421 1420 1418 1416 1415 1413 1412 1410 1409 1407 1405 1404 1402 1401 1399 1398 1397 1395 1394 1393 1392 1390 1389 1388 1386 1384 1383 1381 1380 1378 1377 1376 1375 1374 1373 1372 1371 1371 1370 1370 1369 1369 1368 1368 1368
1447 1447 1446 1445 1445 1444 1443 1442 1441 1440 1439 1438 1436 1435 1434 1432 1431 1429 1428 1427 1425 1423 1422 1420 1418 1417 1415 1413 1412 1410 1408 1407 1405 1404 1402 1401 1399 1398 1396 1395 1394 1393 1391 1390 1388 1387 1386 1384 1382 1380 1379 1378 1376 1375 1373 1373 1372 1371 1370 1369 1368 1368 1367 1367 1366 1366 1365 1365 1364
1445 1445 1444 1443 1443 1442 1441 1440 1439 1438 1437 1435 1434 1433 1432 1430 1428 1427 1425 1424 1422 1421 1419 1417 1415 1414 1412 1411 1409 1407 1405 1403 1402 1400 1399 1398 1396 1395 1393 1393 1391 1390 1388 1387 1385 1384 1382 1380 1378 1377 1375 1374 1373 1371 1370 1369 1368 1368 1367 1366 1365 1365 1364 1363 1363 1363 1362 1362 1361
1443 1443 1442 1441 1440 1440 1439 1438 1437 1435 1434 1433 1432 1431 1430 1428 1426 1425 1423 1421 1419 1418 1416 1414 1413 1411 1409 1407 1406 1404 1402 1400 1398 1397 1395 1394 1393 1392 1391 1389 1388 1386 1385 1383 1381 1379 1378 1376 1375 1373 1372 1371 1369 1368 1367 1366 1365 1364 1364 1363 1362 1361 1361 1360 1360 1359 1359 1359 1358
1441 1441 1440 1439 1438 1438 1437 1435 1434 1433 1432 1431 1430 1429 1428 1426 1424 1422 1420 1418 1417 1415 1413 1412 1409 1408 1406 1404 1402 1401 1399 1398 1396 1394 1393 1391 1390 1388 1388 1386 1385 1383 1381 1379 1377 1375 1374 1373 1371 1370 1369 1368 1366 1365 1364 1363 1362 1361 1361 1360 1359 1358 1357 1357 1356 1356 1356 1355 1355
1439 1439 1438 1437 1436 1435 1434 1433 1433 1431 1430 1429 1428 1427 1425 1424 1422 1420 1418 1416 1414 1412 1410 1408 1407 1405 1403 1401 1399 1398 1396 1394 1393 1391 1390 1388 1387 1385 1384 1383 1382 1379 1377 1375 1373 1372 1370 1369 1368 1367 1366 1365 1363 1362 1361 1360 1359 1358 1358 1357 1356 1355 1354 1353 1353 1352 1352 1352 1352
1438 1437 1436 1435 1434 1433 1432 1431 1430 1429 1428 1427 1426 1424 1423 1421 1419 1417 1415 1413 1411 1409 1408 1406 1404 1402 1400 1399 1397 1395 1393 1392 1390 1388 1387 1385 1384 1383 1381 1380 1378 1376 1374 1372 1370 1368 1367 1366 1365 1364 1363 1362 1361 1359 1358 1357 1356 1355 1354 1353 1353 1352 1351 1350 1349 1349 1349 1348 1348
1435 1435 1434 1433 1432 1431 1430 1429 1428 1427 1426 1425 1423 1422 1420 1418 1416 1414 1413 1411 1409 1407 1405 1403 1402 1400 1398 1396 1394 1393 1391 1389 1387 1386 1384 1382 1381 1379 1378 1377 1374 1372 1370 1368 1367 1365 1364 1363 1362 1361 1360 1359 1358 1357 1355 1354 1353 1352 1352 1350 1349 1348 1348 1347 1346 1346 1346 1345 1345
1433 1433 1432 1431 1430 1429 1428 1427 1426 1425 1424 1422 1421 1419 1417 1416 1414 1412 1410 1408 1406 1405 1403 1401 1399 1397 1395 1393 1392 1390 1388 1386 1385 1383 1382 1380 1378 1376 1374 1373 1371 1368 1366 1365 1363 1362 1361 1360 1358 1358 1357 1356 1355 1354 1353 1351 1350 1349 1348 1347 1346 1345 1344 1344 1343 1343 1343 1342 1342
1432 1431 1430 1429 1428 1427 1426 1425 1424 1423 1421 1420 1418 1417 1415 1413 1411 1409 1408 1406 1404 1402 1400 1398 1397 1394 1393 1391 1389 1388 1386 1384 1382 1381 1379 1377 1375 1373 1371 1369 1367 1365 1363 1361 1360 1359 1358 1357 1356 1354 1353 1353 1352 1351 1349 1348 1347 1346 1345 1344 1343 1342 1341 1341 1340 1339 1339 1338 1338
1430 1429 1428 1427 1426 1425 1424 1423 1422 1421 1419 1418 1416 1414 1412 1410 1408 1407 1405 1403 1401 1399 1397 1395 1393 1392 1390 1388 1387 1385 1383 1381 1379 1378 1376 1374 1372 1369 1367 1365 1363 1361 1359 1358 1357 1356 1355 1353 1353 1351 1350 1349 1349 1348 1346 1345 1344 1343 1341 1340 1339 1338 1338 1337 1336 1336 1335 1335 1335
1428 1427 1426 1425 1424 1423 1422 1421 1420 1418 1417 1415 1413 1411 1409 1408 1406 1404 1402 1400 1398 1397 1395 1393 1391 1389 1387 1385 1383 1382 1380 1378 1376 1374 1372 1370 1368 1366 1363 1361 1359 1358 1357 1355 1354 1353 1352 1351 1349 1348 1347 1346 1346 1344 1343 1342 1341 1339 1338 1336 1335 1334 1334 1333 1333 1332 1331 1331 1331
1426 1425 1424 1423 1423 1421 1420 1418 1417 1416 1414 1412 1410 1409 1407 1405 1403 1401 1399 1398 1396 1394 1392 1390 1388 1386 1384 1383 1381 1378 1377 1374 1373 1371 1369 1367 1364 1363 1360 1358 1357 1355 1354 1353 1352 1350 1349 1348 1347 1346 1344 1343 1343 1341 1340 1338 1337 1336 1334 1333 1332 1331 1330 1329 1329 1328 1328 1327 1327
1424 1423 1422 1421 1420 1419 1418 1416 1415 1413 1411 1410 1408 1406 1404 1403 1401 1399 1397 1395 1393 1392 1389 1388 1386 1384 1382 1380 1378 1376 1374 1371 1369 1367 1365 1363 1362 1359 1358 1356 1354 1353 1351 1350 1349 1348 1347 1345 1344 1343 1342 1341 1339 1338 1336 1335 1333 1332 1330 1329 1328 1327 1326 1326 1325 1324 1324 1323 1323
1423 1421 1420 1419 1418 1417 1415 1414 1413 1411 1409 1407 1405 1403 1402 1400 1398 1397 1395 1393 1391 1389 1387 1385 1383 1381 1379 1377 1375 1373 1371 1369 1366 1364 1362 1360 1359 1357 1355 1353 1351 1350 1349 1348 1347 1345 1344 1343 1341 1340 1339 1338 1336 1335 1333 1332 1330 1328 1327 1326 1325 1323 1323 1322 1321 1321 1320 1319 1319
1421 1419 1418 1417 1416 1415 1413 1412 1410 1408 1407 1405 1403 1401 1399 1398 1396 1394 1393 1391 1388 1386 1384 1382 1380 1378 1377 1375 1372 1370 1368 1366 1364 1361 1359 1358 1356 1354 1352 1350 1349 1347 1346 1345 1344 1343 1341 1340 1339 1338 1336 1335 1333 1332 1330 1329 1327 1326 1324 1323 1322 1320 1320 1319 1318 1317 1316 1316 1315
1419 1418 1417 1415 1414 1413 1411 1410 1408 1406 1404 1403 1401 1399 1398 1396 1394 1392 1390 1388 1386 1384 1381 1379 1378 1376 1374 1372 1369 1367 1365 1363 1361 1359 1357 1355 1353 1352 1350 1348 1346 1345 1343 1343 1341 1340 1339 1338 1336 1335 1334 1333 1331 1329 1328 1326 1324 1323 1321 1320 1318 1317 1317 1316 1315 1314 1313 1312 1311
1418 1417 1415 1414 1412 1411 1409 1408 1406 1404 1402 1400 1398 1397 1395 1393 1392 1390 1388 1386 1384 1382 1379 1377 1375 1373 1371 1369 1366 1364 1362 1360 1358 1357 1355 1353 1351 1350 1348 1346 1344 1342 1341 1340 1339 1338 1337 1335 1334 1333 1331 1330 1328 1327 1325 1323 1322 1320 1318 1317 1316 1314 1313 1313 1312 1311 1309 1308 1308
1416 1415 1413 1412 1410 1408 1407 1405 1404 1402 1400 1398 1396 1394 1393 1391 1389 1387 1385 1383 1381 1379 1377 1375 1372 1370 1368 1366 1363 1361 1359 1357 1356 1354 1353 1351 1349 1348 1346 1344 1342 1340 1339 1338 1337 1335 1334 1333 1331 1330 1329 1328 1326 1324 1323 1321 1319 1317 1316 1314 1313 1312 1310 1309 1309 1308 1307 1305 1305
1414 1413 1411 1410 1408 1407 1405 1403 1402 1400 1398 1396 1394 1393 1391 1389 1387 1385 1383 1381 1379 1377 1375 1372 1370 1368 1366 1363 1361 1359 1357 1354 1353 1352 1351 1349 1347 1346 1344 1342 1340 1338 1337 1335 1334 1333 1332 1330 1329 1328 1327 1325 1323 1322 1320 1318 1317 1315 1313 1312 1311 1309 1308 1307 1306 1305 1304 1303 1302